Home   Weather   Rathenow   Past weeks

Flag for Germany Past Weather in Rathenow, Brandenburg, Germany — Yesterday and Last 2 Weeks

46 °F


Feels Like: 42 °F
Forecast: 48 / 54 °F
Wind: 8 mph from West

Location: Berlin-Tegel

Current Time: Oct 29, 2016 at 1:48:08 AM

Latest Report: Oct 29, 2016 at 1:20 AM

Visibility: 10 mi

Pressure: 30.39 "Hg

Humidity: 82%

Dew Point: 41 °F

Location of RathenowLocation

Past Weather in Rathenow — Graph


Rathenow Temperature Yesterday

Maximum temperature yesterday: 55 °F (at 1:50 PM)
Minimum temperature yesterday: 50 °F (at 12:20 AM)
Average temperature yesterday: 53 °F

High & Low Weather Summary for the Past Weeks

High55 °F (Oct 28, 1:50 PM)100% (Oct 16, 12:20 AM)30.45 "Hg (Oct 16, 12:20 AM)
Low39 °F (Oct 14, 5:50 AM)58% (Oct 14, 2:20 PM)29.86 "Hg (Oct 15, 4:50 AM)
Average47 °F89%30.11 "Hg
* Reported Oct 14 12:20 AM — Oct 29 12:20 AM, Rathenow, Weather by CustomWeather, © 2016

Note: Actual official high and low records may vary slightly from our data, if they occured in-between our weather recording intervals... More about our weather records


Rathenow Weather History for the Previous 24 Hours

Scroll right to see more
Time TempWeatherWind HumidityBarometerVisibility
12:20 AM
Sat, Oct 29
48 °FPassing clouds.8 mph76%30.39 "HgN/A
11:50 PM
Fri, Oct 28
50 °FPassing clouds.8 mph76%30.39 "HgN/A
11:20 PM50 °FPassing clouds.9 mph71%30.39 "HgN/A
10:50 PM52 °FPassing clouds.12 mph72%30.39 "HgN/A
10:20 PM52 °FPassing clouds.8 mph88%30.36 "HgN/A
9:50 PM54 °FPassing clouds.9 mph82%30.36 "HgN/A
9:20 PM55 °FPassing clouds.8 mph82%30.36 "HgN/A
8:50 PM55 °FPassing clouds.9 mph88%30.33 "HgN/A
8:20 PM55 °FPassing clouds.10 mph88%30.33 "HgN/A
7:50 PM55 °FPassing clouds.13 mph88%30.33 "HgN/A
7:20 PM55 °FPassing clouds.12 mph88%30.33 "HgN/A
6:50 PM55 °FPassing clouds.12 mph88%30.33 "HgN/A
6:20 PM55 °FMostly cloudy.12 mph88%30.33 "HgN/A
5:50 PM55 °FMostly cloudy.12 mph88%30.30 "HgN/A
5:20 PM55 °FPartly sunny.15 mph88%30.30 "HgN/A
4:50 PM55 °FPartly sunny.15 mph88%30.30 "HgN/A
4:20 PM55 °FOvercast.13 mph88%30.30 "HgN/A
3:50 PM55 °FOvercast.13 mph88%30.30 "HgN/A
3:20 PM54 °FMostly cloudy.15 mph94%30.30 "HgN/A
2:50 PM54 °FLight rain. Overcast.14 mph94%30.30 "HgN/A
2:20 PM54 °FLight rain. Overcast.16 mph88%30.30 "HgN/A
1:50 PM55 °FOvercast.16 mph82%30.30 "HgN/A
1:20 PM54 °FOvercast.15 mph82%30.30 "HgN/A
12:50 PM54 °FOvercast.16 mph82%30.30 "HgN/A
12:20 PM54 °FPartly sunny.16 mph82%30.30 "HgN/A
11:50 AM54 °FPartly sunny.16 mph82%30.30 "HgN/A
11:20 AM54 °FPartly sunny.17 mph82%30.30 "HgN/A
10:50 AM54 °FMostly cloudy.16 mph82%30.30 "HgN/A
10:20 AM54 °FPartly sunny.14 mph82%30.33 "HgN/A
9:50 AM52 °FLight rain. Overcast.14 mph88%30.33 "HgN/A
9:20 AM52 °FLight rain. Overcast.13 mph88%30.33 "HgN/A
8:50 AM52 °FOvercast.14 mph82%30.33 "HgN/A
8:20 AM52 °FOvercast.15 mph82%30.33 "HgN/A
7:50 AM52 °FPassing clouds.13 mph82%30.33 "HgN/A
7:20 AM52 °FPassing clouds.13 mph82%30.33 "HgN/A
6:50 AM52 °FPassing clouds.15 mph82%30.33 "HgN/A
6:20 AM52 °FPassing clouds.12 mph82%30.33 "HgN/A
5:50 AM52 °FPassing clouds.12 mph82%30.33 "HgN/A
5:20 AM52 °FPassing clouds.12 mph88%30.36 "HgN/A
4:50 AM52 °FPassing clouds.13 mph88%30.36 "HgN/A
4:20 AM52 °FPassing clouds.13 mph88%30.36 "HgN/A
3:50 AM50 °FPassing clouds.9 mph94%30.36 "HgN/A
3:20 AM50 °FPassing clouds.9 mph94%30.39 "HgN/A
2:50 AM50 °FPassing clouds.7 mph94%30.39 "HgN/A
2:20 AM50 °FPassing clouds.7 mph88%30.39 "HgN/A
1:50 AM50 °FPassing clouds.7 mph94%30.39 "HgN/A
1:20 AM50 °FPassing clouds.7 mph94%30.42 "HgN/A
Weather by CustomWeather, © 2016

See weather overviewHow to use our weather pages